This is the latest recevied weather packets stored in our database for station/object KM6YFK-13. If no packets are shown the sender has not sent any weather packets the latest 10 day(s).
| Time | Temp. | Humidity | Pressure | Rain* | Wind** | Luminosity | Snow |
|---|---|---|---|---|---|---|---|
| 1777209808 | 23.33° C | 81% | 1012.2 hPa | 0 mm | - | 432 W/m² | - |
| 1777209508 | 23.33° C | 80% | 1012.2 hPa | 0 mm | - | 412 W/m² | - |
| 1777209208 | 23.33° C | 80% | 1012.3 hPa | 0 mm | - | 398 W/m² | - |
| 1777208908 | 23.33° C | 81% | 1012.2 hPa | 0 mm | - | 376 W/m² | - |
| 1777208608 | 22.78° C | 81% | 1012.4 hPa | 0 mm | - | 361 W/m² | - |
| 1777208307 | 22.78° C | 83% | 1012.3 hPa | 0 mm | - | 342 W/m² | - |
| 1777208008 | 22.78° C | 85% | 1012.3 hPa | 0 mm | - | 325 W/m² | - |
| 1777207708 | 22.22° C | 86% | 1012.2 hPa | 0 mm | - | 307 W/m² | - |
| 1777207408 | 22.22° C | 86% | 1012.3 hPa | 0 mm | - | 288 W/m² | - |
| 1777207108 | 21.67° C | 87% | 1012.3 hPa | 0 mm | - | 270 W/m² | - |
| 1777206809 | 21.67° C | 88% | 1012.4 hPa | 0 mm | - | 253 W/m² | - |
| 1777206508 | 21.67° C | 90% | 1012.3 hPa | 0 mm | - | 236 W/m² | - |
| 1777206208 | 21.11° C | 91% | 1012.3 hPa | 0 mm | - | 218 W/m² | - |
| 1777205908 | 21.11° C | 92% | 1012.2 hPa | 0 mm | - | 200 W/m² | - |
| 1777205607 | 20.56° C | 94% | 1012.2 hPa | 0 mm | - | 182 W/m² | - |
| 1777205308 | 20.56° C | 94% | 1012.2 hPa | 0 mm | - | 166 W/m² | - |
| 1777205007 | 20° C | 95% | 1012.2 hPa | 0 mm | - | 139 W/m² | - |
| 1777204708 | 20° C | 95% | 1012 hPa | 0 mm | - | 132 W/m² | - |
| 1777204408 | 20° C | 96% | 1012 hPa | 0 mm | - | 68 W/m² | - |
| 1777204107 | 19.44° C | 96% | 1011.9 hPa | 0 mm | - | 79 W/m² | - |
| 1777203808 | 19.44° C | 96% | 1011.8 hPa | 0 mm | - | 38 W/m² | - |
| 1777203508 | 19.44° C | 96% | 1011.9 hPa | 0 mm | - | 39 W/m² | - |
| 1777203208 | 19.44° C | 97% | 1011.8 hPa | 0 mm | - | 57 W/m² | - |
| 1777202907 | 19.44° C | 97% | 1011.8 hPa | 0 mm | - | 33 W/m² | - |
| 1777202607 | 19.44° C | 97% | 1011.7 hPa | 0 mm | - | 29 W/m² | - |
* Rain latest hour (hover to see other rain measurements)
** Current wind speed in m/s (hover to see current wind gust speed)